{"data":{"norad_id":64417,"intl_designator":"2025-129F","name":"STARLINK-34487","alt_names":[],"object_type":"PAYLOAD","status":"ACTIVE","operator":null,"country":"US","launch_date":"2025-06-17","launch_site_code":"AFWTR","launch_vehicle":null,"mission":null,"orbit_class":"UNKNOWN","rcs_meters":null,"size_class":null,"mass_kg":null,"dimensions":null,"purposes":["comms"],"wikipedia_slug":null,"has_3d_model":false,"image_url":null,"decayed_at":null,"tle_current":{"epoch":"2026-05-25T05:14:23.398368Z","epoch_age_seconds":50065,"freshness":"FRESH","line1":"1 64417U 25129F   26145.21832637  .00005267  00000+0  44881-3 0  9998","line2":"2 64417  70.0005 241.3744 0003282 270.4712  89.6071 14.98338297 52696","mean_motion":14.98338297,"eccentricity":0.0003282,"inclination_deg":70.0005,"raan_deg":241.3744,"arg_perigee_deg":270.4712,"mean_anomaly_deg":89.6071,"bstar":0.00044881,"rev_number":5269,"period_min":96.106466936285,"perigee_km":569.74918838878,"apogee_km":574.3112781607,"semimajor_km":6950.1672332747,"source":"CELESTRAK","updated_at":"2026-05-25T13:38:20.438671Z"}}}